RH
56 60 63 69 73 79 68 71 71 75 81 74 63 61 57 48 35 31 29 26 21 20 19 17 17 16 15 10 13 13 12 12 16 20 28 36 73 86 100 100 100 100 100 100
53 62 68 60 53 57 61 72 71 66 60 58 55 50 44 34 30 24 22 21 22 21 18 14 12 10 11 10 15 13 11 11 12 13 22 31 52 90 95 98 100 100 100 100
63 55 55 51 54 62 64 59 53 46 49 51 46 42 36 30 24 21 23 24 22 17 13 9 10 10 10 10 12 11 14 15 13 13 18 26 36 58 98 93 100 100 100 100
62 54 64 58 58 53 53 49 49 48 54 51 47 38 30 23 22 25 26 20 15 12 9 9 8 7 6 6 8 12 13 16 15 14 14 23 36 47 86 86 91 100 99 100
46 57 65 57 52 62 66 59 51 43 56 50 38 30 31 29 27 23 18 15 11 12 10 8 6 5 6 6 7 8 11 13 12 16 16 16 24 26 47 80 100 100 100 95
49 50 51 52 48 48 55 54 54 44 40 40 36 34 38 31 22 18 15 12 13 11 8 7 5 4 4 4 5 7 10 13 13 15 16 17 19 24 37 65 96 99 100 90
44 46 44 46 48 49 41 35 34 32 41 41 40 38 28 21 19 14 15 15 10 8 7 5 5 4 4 4 4 6 9 12 14 17 17 18 17 17 20 41 60 94 95 100
51 50 49 51 46 46 47 43 42 40 36 35 31 27 23 19 16 18 16 12 9 7 7 6 5 5 4 5 5 6 7 11 15 16 14 18 17 14 15 24 52 74 90 91
47 52 51 47 44 45 43 40 37 32 35 30 25 20 18 18 20 16 12 10 9 7 7 6 6 5 5 5 6 6 6 8 10 8 11 13 17 16 19 25 38 67 89 92
45 45 42 41 38 38 36 36 35 31 26 24 20 18 21 21 17 14 11 9 9 8 6 6 6 5 6 6 7 6 6 6 7 7 12 17 20 18 22 21 25 44 90 99
43 45 42 40 39 38 32 28 27 23 23 22 22 23 22 17 14 11 10 8 10 8 6 6 6 6 6 7 6 7 7 6 6 9 18 22 23 22 26 24 21 29 49 83
34 35 34 32 31 30 27 26 23 25 27 26 23 20 16 15 13 11 8 8 8 7 6 6 6 6 6 7 7 7 7 7 7 11 19 25 26 29 29 30 25 24 29 43
30 30 30 31 29 29 29 28 28 27 25 22 19 14 14 13 11 10 8 8 7 7 6 6 6 6 6 6 6 6 6 7 8 13 18 24 26 29 27 27 24 22 22 32
33 33 33 31 28 29 31 29 25 18 16 17 14 12 12 11 9 10 8 8 7 6 6 6 6 5 6 6 6 6 7 8 10 15 21 24 26 28 25 23 23 21 20 37
23 23 24 25 25 25 26 24 17 15 15 12 13 13 10 10 10 8 7 8 6 6 6 6 6 6 7 7 7 7 9 12 16 20 20 21 17 18 21 25 27 22 23 35
19 20 21 20 20 21 20 18 16 16 13 12 12 10 10 10 9 7 7 7 6 7 7 6 6 6 7 7 7 7 9 14 17 17 14 12 12 17 22 27 28 26 25 37
18 17 16 17 18 18 19 16 15 13 13 14 11 8 9 10 8 7 7 7 6 7 6 6 7 7 8 8 9 10 11 13 12 11 11 12 14 25 27 28 28 28 28 40
15 15 15 16 18 21 19 15 13 12 12 11 11 10 8 7 7 6 6 6 6 6 7 7 7 8 8 10 11 13 14 12 11 12 17 18 21 29 27 28 31 31 30 34
14 15 16 19 22 19 16 16 12 11 11 11 11 8 7 7 6 6 6 6 7 7 7 7 8 8 10 11 13 12 12 11 16 18 20 21 22 25 27 26 28 30 30 30
14 16 18 20 17 17 16 14 12 11 11 12 9 8 8 8 7 6 6 6 6 7 7 8 9 10 12 12 12 13 14 16 17 22 23 26 25 24 27 28 30 32 33 32
14 16 16 15 16 16 14 14 12 13 14 10 9 9 8 8 8 7 6 7 8 8 9 9 10 12 14 18 20 20 21 22 23 22 25 25 24 24 23 24 25 27 29 31
12 12 14 16 15 14 15 13 16 15 11 10 10 10 9 10 11 10 9 9 9 9 8 10 11 13 15 17 16 16 16 17 17 18 16 17 19 21 22 23 24 25 27 28
12 15 14 13 14 15 14 17 16 13 12 11 11 12 13 13 13 12 12 12 11 10 10 10 10 13 14 15 17 20 22 23 23 24 24 23 22 22 22 23 22 22 22 23
10 11 14 15 14 18 19 16 15 12 11 12 13 14 15 15 14 14 16 16 16 16 17 18 20 23 24 24 24 25 25 25 25 24 23 23 22 21 20 20 20 20 20 20
11 13 15 15 21 21 17 14 13 13 15 14 15 16 16 16 17 16 17 17 18 20 22 23 25 26 26 26 27 28 28 28 28 27 26 25 24 23 23 22 21 20 19 18
13 13 16 23 21 17 15 13 15 16 16 17 18 18 19 17 18 21 21 21 23 24 25 28 30 32 32 31 32 34 36 38 39 41 40 42 42 40 38 35 31 28 24 21
13 19 25 22 17 16 15 18 18 17 18 19 18 21 22 21 24 23 24 24 28 34 43 52 62 76 86 87 83 80 76 72 69 64 60 52 49 47 43 40 37 34 30 28
Wind_Speed
88 90 94 95 98 101 104 107 107 113 112 113 112 110 108 109 102 97 93 91 82 77 71 63 60 56 58 53 55 57 59 56 56 53 55 58 63 63 66 66 62 61 59 56
81 84 84 89 92 93 93 95 101 105 105 106 105 102 100 98 94 91 83 78 74 70 67 61 58 55 57 58 53 59 59 54 57 57 56 54 62 66 69 70 67 63 62 64
77 78 79 81 82 85 88 91 94 96 96 97 93 93 92 88 85 79 73 71 68 65 62 58 56 55 56 56 54 57 56 54 53 55 61 58 61 65 71 71 71 69 66 64
73 75 74 78 78 80 79 82 84 85 83 82 81 80 81 77 72 69 67 65 61 59 60 55 54 52 52 53 52 55 57 58 55 53 59 62 59 61 71 73 71 72 73 68
65 70 69 72 73 74 75 75 74 73 70 72 72 71 66 64 64 63 61 59 56 55 55 52 54 49 44 47 50 54 56 60 53 51 56 63 65 64 64 70 70 68 70 72
58 62 64 65 63 64 68 68 65 63 64 64 64 60 59 61 61 57 57 56 52 52 49 46 45 44 37 40 44 47 50 57 54 54 55 60 66 65 64 67 72 70 69 66
54 55 57 58 58 59 59 58 58 57 57 57 55 55 58 56 56 54 55 53 49 46 42 39 38 36 33 36 40 43 49 54 55 54 56 57 61 65 66 65 65 68 68 63
50 51 53 53 53 52 54 52 51 51 49 49 49 51 52 52 52 52 49 49 43 41 36 35 33 33 30 33 34 41 47 51 58 60 58 55 59 60 60 62 63 63 61 60
49 49 49 49 49 49 48 48 47 45 46 46 49 49 48 48 49 48 46 43 40 37 33 32 30 29 27 30 33 40 46 51 54 54 53 51 52 53 48 57 56 60 61 59
48 48 48 47 46 45 44 43 44 44 44 46 46 45 45 46 46 45 42 40 36 35 31 29 28 27 27 29 32 35 42 46 47 40 38 46 53 48 48 55 57 59 63 62
48 48 47 46 44 43 43 42 42 42 43 45 44 43 44 43 44 41 39 34 31 33 30 27 27 25 26 30 31 34 37 39 37 35 38 49 49 48 47 49 54 59 60 64
47 47 46 45 43 43 43 43 43 43 44 45 43 41 40 40 40 39 37 30 27 29 28 26 25 24 25 27 32 34 36 36 38 38 40 48 49 51 49 50 51 56 57 55
47 47 46 45 44 44 44 45 42 44 41 40 41 36 37 37 34 34 32 25 26 28 25 24 24 23 25 29 30 31 34 35 35 39 43 49 52 54 54 52 49 53 55 53
50 49 48 47 46 45 44 43 45 41 36 37 38 34 34 30 31 27 29 24 27 25 23 22 23 21 22 26 28 29 26 31 37 41 44 49 51 55 56 53 51 51 55 56
49 48 48 47 45 43 42 44 42 38 38 34 31 31 28 26 28 23 26 26 26 22 21 21 20 19 21 23 26 30 30 34 40 46 48 53 57 53 48 47 48 49 53 59
49 48 47 44 43 42 43 43 37 38 36 30 28 25 24 24 24 23 23 24 24 19 17 17 18 19 20 23 27 31 37 42 46 48 51 52 49 46 46 48 48 49 54 59
48 46 43 41 40 41 42 39 35 34 29 27 25 23 18 21 23 23 21 21 16 14 13 16 18 18 19 22 25 29 34 41 43 44 40 38 33 39 43 47 48 48 52 58
44 42 41 38 39 39 39 35 31 27 23 21 22 21 18 19 20 18 19 15 12 13 12 15 17 17 18 21 24 29 33 33 35 35 35 35 38 42 45 49 52 51 53 58
40 38 36 34 35 37 32 31 26 20 18 18 18 17 15 15 14 12 12 12 14 15 15 18 16 16 18 21 24 25 23 21 23 28 31 34 36 42 47 47 51 54 55 57
34 32 31 34 31 30 28 24 19 16 15 15 13 13 12 11 10 10 14 15 16 17 18 18 17 17 16 17 17 17 17 18 20 24 29 33 37 41 48 50 51 53 55 56
32 31 32 29 28 26 22 19 17 15 14 12 11 10 9 7 8 11 13 15 19 21 20 20 20 20 19 17 17 18 19 20 24 27 30 34 37 39 44 48 49 51 55 57
31 29 26 26 24 21 19 17 15 14 13 11 10 9 7 5 7 10 12 16 19 21 21 23 25 24 25 24 21 19 20 22 23 26 27 27 30 34 38 42 47 50 53 55
26 27 26 23 21 20 19 17 16 14 13 12 9 6 4 5 7 10 11 12 13 14 14 13 15 14 13 12 12 12 13 15 18 21 24 27 29 32 36 40 43 47 50 54
27 25 24 23 22 22 20 18 17 16 14 12 10 10 9 11 13 13 13 15 14 17 17 17 16 15 14 13 13 13 14 16 19 21 24 27 30 32 35 38 42 45 48 52
28 27 26 26 25 22 21 20 18 16 14 13 12 12 13 13 14 14 14 15 16 15 14 13 11 11 9 8 8 10 12 15 17 19 22 25 28 31 34 37 40 43 46 49
29 29 28 26 25 23 22 19 17 14 14 14 15 14 14 14 14 13 12 12 13 12 10 9 7 6 6 7 8 9 11 14 16 19 22 24 28 31 33 37 40 42 45 48
30 30 29 27 25 24 21 19 16 16 16 16 14 14 13 14 15 14 12 11 11 10 9 8 5 3 1 3 5 8 10 14 17 20 25 28 30 34 37 40 43 46 48 51
Wind_Direction
250 252 255 258 256 258 258 262 264 266 267 271 274 278 279 281 283 286 287 288 288 286 285 283 280 276 272 267 264 259 255 249 242 239 233 229 226 222 221 221 221 224 225 223
252 253 256 257 257 260 260 261 264 265 268 271 274 277 279 282 284 286 286 285 285 284 283 281 277 274 269 265 257 255 254 248 243 239 235 228 225 224 221 220 220 220 223 227
249 252 251 253 255 257 259 262 264 268 271 272 275 277 279 282 284 284 284 284 283 283 282 280 279 274 268 262 252 253 251 248 243 235 233 228 225 223 223 223 221 221 221 225
249 251 253 255 256 258 261 263 265 270 273 274 275 276 278 281 283 282 282 282 284 285 284 283 278 272 266 260 251 246 245 244 242 233 231 229 223 224 222 225 224 224 225 227
252 251 253 257 259 262 264 266 268 272 272 274 276 279 280 280 279 281 283 284 285 285 284 283 279 273 261 255 249 242 239 241 241 234 228 228 227 227 224 225 225 226 229 231
250 253 255 256 258 260 263 267 268 272 274 276 277 280 280 279 281 283 286 287 287 286 286 282 277 272 263 253 245 241 237 239 238 233 229 226 228 226 224 224 225 227 229 234
251 253 256 257 259 262 264 267 269 271 270 273 278 279 278 280 283 285 287 288 287 286 286 279 273 268 260 249 240 232 231 232 233 230 230 227 227 228 226 223 224 227 230 232
253 254 256 258 260 263 265 267 269 271 274 274 275 277 279 282 286 288 288 289 288 285 280 277 270 264 255 247 239 229 227 226 228 226 227 225 228 230 225 223 222 225 228 229
255 257 259 260 262 265 268 269 271 272 274 275 274 276 280 284 286 287 288 288 291 286 280 273 268 259 248 242 235 229 227 225 228 235 228 227 228 231 224 223 222 223 225 228
257 259 261 263 266 266 267 269 270 272 272 274 276 279 284 285 286 286 286 287 286 282 277 270 262 252 244 233 230 230 231 231 232 235 225 225 227 227 221 221 217 219 220 224
256 259 261 263 264 266 267 268 268 271 275 276 280 282 283 284 284 283 283 284 283 277 274 265 255 245 239 234 227 228 231 232 230 223 216 221 224 226 221 221 219 219 218 220
255 258 260 262 264 266 267 270 272 274 275 277 278 280 282 281 282 284 283 286 272 267 267 260 251 237 233 231 224 222 225 225 222 212 208 217 219 222 219 220 217 217 218 218
254 256 259 262 262 264 267 271 272 272 275 276 278 280 279 277 278 278 281 284 267 265 260 252 244 235 229 223 222 218 214 215 212 207 208 213 215 217 219 220 219 217 213 214
253 255 257 258 260 263 267 271 272 271 273 275 277 277 273 276 272 270 275 275 266 261 258 249 242 233 230 224 214 213 208 209 206 206 209 214 215 218 219 218 218 217 213 210
249 251 253 256 260 264 266 268 268 275 274 273 275 272 274 269 269 265 267 266 262 257 253 247 239 226 219 218 209 198 197 201 206 208 212 216 220 220 221 220 221 220 214 213
250 252 255 257 259 262 263 264 271 271 274 277 270 267 265 263 264 263 260 254 256 255 249 241 232 222 211 208 210 205 202 201 207 213 217 223 224 219 219 218 221 222 217 217
249 250 252 255 257 258 263 264 264 266 268 268 270 267 257 258 259 258 250 251 253 245 234 231 222 216 208 203 204 206 210 210 217 223 227 231 227 219 220 221 222 223 221 219
246 248 249 251 254 255 258 260 262 262 261 257 258 263 261 249 247 244 241 239 229 226 218 214 208 206 203 201 203 207 213 219 225 227 226 226 221 219 220 220 222 224 224 222
242 243 244 245 246 247 252 254 254 254 250 249 252 255 256 248 245 237 237 224 214 206 199 196 194 194 198 200 206 213 222 229 229 230 227 228 225 225 226 226 226 228 228 227
235 234 234 235 237 240 243 246 247 245 245 247 250 254 253 251 247 240 230 217 205 194 192 185 182 181 186 196 207 214 220 223 230 230 228 226 227 226 227 230 230 231 233 233
222 221 223 224 226 229 232 233 235 235 238 240 239 238 231 233 234 236 225 205 194 192 187 182 176 172 178 186 195 202 206 210 214 217 219 223 227 230 230 233 236 236 236 238
214 214 213 214 215 215 214 216 218 221 224 221 216 210 204 227 231 221 211 208 201 198 192 187 183 185 188 194 195 200 205 213 219 226 231 233 234 236 237 239 240 241 242 243
201 201 202 200 197 197 198 200 206 206 202 197 184 176 181 198 194 183 192 200 201 194 196 195 190 194 199 200 204 214 226 230 236 237 239 239 240 241 241 243 245 245 245 246
191 191 186 184 185 187 187 187 192 192 186 171 158 157 159 167 172 174 168 163 165 165 169 171 173 179 187 197 207 217 225 231 236 241 245 248 250 251 252 252 252 252 252 252
179 176 177 177 179 180 182 183 182 175 169 160 155 154 159 162 168 172 170 170 166 164 166 166 173 182 194 210 231 244 253 257 260 262 264 265 266 266 266 265 263 262 260 259
171 174 171 171 175 176 176 174 167 164 158 157 156 157 160 166 160 156 161 164 161 161 160 163 175 188 202 220 235 248 259 267 272 274 274 273 272 270 269 269 268 267 266 265
169 166 167 169 172 169 166 158 159 157 156 156 152 150 150 146 148 154 156 154 143 134 129 122 126 135 236 257 261 263 265 269 271 271 270 270 272 272 271 270 270 269 268 268